This is the latest recevied weather packets stored in our database for station/object KD4MBW. If no packets are shown the sender has not sent any weather packets the latest 10 day(s).
| Time | Temp. | Humidity | Pressure | Rain* | Wind** | Luminosity | Snow |
|---|---|---|---|---|---|---|---|
| 1787661932 | 25.56° C | 95% | 1017.3 hPa | 0 mm | - | 136 W/m² | - |
| 1787661631 | 25° C | 97% | 1017.1 hPa | 0 mm | - | 143 W/m² | - |
| 1787661325 | 25° C | 97% | 1016.9 hPa | 0 mm | - | 99 W/m² | - |
| 1787661024 | 25° C | 97% | 1016.9 hPa | 0 mm | - | 71 W/m² | - |
| 1787660719 | 25° C | 97% | 1016.8 hPa | 0 mm | - | 56 W/m² | - |
| 1787660414 | 25° C | 97% | 1016.9 hPa | 0 mm | - | 55 W/m² | - |
| 1787660108 | 25° C | 96% | 1016.8 hPa | 0 mm | - | 74 W/m² | - |
| 1787659808 | 24.44° C | 96% | 1016.7 hPa | 0 mm | - | 60 W/m² | - |
| 1787659506 | 24.44° C | 97% | 1016.7 hPa | 0 mm | - | 65 W/m² | - |
| 1787659201 | 24.44° C | 97% | 1016.6 hPa | 0 mm | - | 44 W/m² | - |
| 1787658895 | 23.89° C | 98% | 1016.5 hPa | 0 mm | - | 43 W/m² | - |
| 1787658590 | 23.89° C | 99% | 1016.7 hPa | 0 mm | - | 31 W/m² | - |
| 1787658286 | 23.89° C | 99% | 1016.4 hPa | 0 mm | - | 23 W/m² | - |
| 1787657981 | 23.33° C | 99% | 1016.5 hPa | 0 mm | - | 18 W/m² | - |
| 1787657676 | 23.33° C | 99% | 1016.6 hPa | 0 mm | - | 13 W/m² | - |
| 1787657372 | 23.33° C | 99% | 1016.5 hPa | 0 mm | - | 9 W/m² | - |
| 1787657067 | 23.33° C | 99% | 1016.7 hPa | 0 mm | - | 6 W/m² | - |
| 1787656764 | 23.33° C | 99% | 1016.6 hPa | 0 mm | - | 4 W/m² | - |
| 1787656459 | 23.33° C | 99% | 1016.6 hPa | 0 mm | - | 2 W/m² | - |
| 1787656158 | 23.33° C | 99% | 1016.3 hPa | 0 mm | - | 1 W/m² | - |
| 1787655851 | 23.33° C | 99% | 1016.5 hPa | 0 mm | - | 0 W/m² | - |
| 1787655550 | 23.33° C | 99% | 1016.4 hPa | 0 mm | - | 0 W/m² | - |
| 1787655249 | 23.33° C | 99% | 1016.3 hPa | 0 mm | - | 0 W/m² | - |
| 1787654944 | 23.33° C | 99% | 1016.2 hPa | 0 mm | - | 0 W/m² | - |
| 1787654641 | 23.33° C | 99% | 1016.2 hPa | 0 mm | - | 0 W/m² | - |
* Rain latest hour (hover to see other rain measurements)
** Current wind speed in m/s (hover to see current wind gust speed)